[[{"header":{"parameterUnit":"m.s-1","parameterCategory":1,"la1":30.2991,"la2":30.254,"lo1":-89.0895,"lo2":-89.0444,"dy":0.0017,"dx":0.0017,"nx":28,"ny":28,"refTime":"2024-06-08T09:00:00:Z","depth":0,"parameterNumber":2,"parameterNumberName":"U-component_of_WINDS"},"data":[0,0,0,0,0,0,0,0,0,0,0,0,0,0,0,0,0,0,0,0,0,0,0,0,0,0,0,0,0,0,0,0,0,0,0,0,0,0,0,0,0,0,0,0,0,0,0,0,0,0,0,0,0,0,0,0,0,0,1.4115,1.4116,0,1.4223,1.4224,1.4226,1.4255,1.4254,1.4254,1.4253,1.4365,1.4368,1.4371,0,0,0,0,0,0,0,0,0,0,0,0,0,1.3932,1.3935,1.4115,1.4116,1.4117,1.4223,1.4224,1.4226,1.4255,1.4254,1.4254,1.4253,1.4363,1.4368,1.4372,0,0,0,0,0,0,0,0,0,0,0,0,0,1.4023,1.3936,1.4114,1.4145,1.4148,1.4223,1.4225,1.4226,1.4255,1.4254,1.4253,1.4252,1.4362,1.4367,1.4372,1.4424,0,0,1.4389,1.4391,0,0,0,0,0,0,0,0,1.4018,1.403,1.4139,1.4143,1.4147,1.4225,1.4201,1.4293,1.4256,1.4215,1.4253,1.4252,1.4319,1.4328,1.435,1.443,1.4434,1.4389,1.4392,1.4395,1.4396,0,0,0,0,0,0,0,1.4012,1.4025,1.4158,1.414,1.4145,1.4153,1.4164,1.4219,1.4271,1.4218,1.4221,1.4233,1.4321,1.4345,1.4353,1.4436,1.4389,1.4394,1.4397,1.4399,1.4563,1.4564,0,0,0,0,0,0,1.4,1.402,1.4154,1.4161,1.4079,1.4157,1.417,1.4201,1.427,1.428,1.4234,1.4234,1.4336,1.4347,1.4357,1.4422,1.4395,1.44,1.4403,1.4562,1.4564,1.4565,0,0,0,0,0,0,1.3996,1.4012,1.415,1.4091,1.4109,1.4161,1.4195,1.4203,1.4227,1.4282,1.4291,1.4249,1.4336,1.4349,1.4407,1.4426,1.4402,1.4407,1.4561,1.4563,1.4564,1.4553,0,0,0,0,0,0,1.3991,1.401,1.403,1.4091,1.4112,1.4198,1.4196,1.4206,1.4236,1.4238,1.4299,1.4308,1.4336,1.4399,1.4413,1.4433,1.4411,1.4559,1.4562,1.4564,1.4551,1.4554,1.4556,0,0,0,0,0,1.3984,1.4023,1.4031,1.4047,1.4139,1.4199,1.4211,1.4243,1.4238,1.4259,1.4294,1.4306,1.4422,1.4405,1.442,1.4443,1.4558,1.4561,1.4564,1.4551,1.4553,1.4555,0,0,0,0,0,0,1.3963,1.4031,1.4042,1.4101,1.4144,1.4204,1.4231,1.4245,1.429,1.429,1.4328,1.4341,1.4396,1.4425,1.4405,1.4496,1.449,1.4496,1.4475,1.4478,1.448,1.4472,1.4416,0,0,0,0,0,1.3965,1.4009,1.4066,1.4114,1.4135,1.4179,1.4207,1.4228,1.4274,1.4292,1.4331,1.4375,1.4422,1.4452,1.4498,1.4556,1.4569,1.4579,1.4581,1.4582,1.4587,1.4619,1.4624,1.4573,1.4573,1.4573,0,0,1.397,1.4013,1.4038,1.411,1.4146,1.419,1.4194,1.4241,1.4274,1.4299,1.4356,1.4386,1.4438,1.4496,1.4524,1.4522,1.4604,1.4586,1.4586,1.459,1.4622,1.4627,1.4631,1.4575,1.4575,1.4575,0,0,1.4002,1.4039,1.4082,1.4118,1.4172,1.4202,1.4212,1.427,1.4291,1.4349,1.4368,1.4408,1.4488,1.4524,1.4552,1.4598,1.461,1.4612,1.4622,1.4653,1.4657,1.4661,1.4676,1.4681,1.4616,1.4616,1.4616,0,1.4002,1.4069,1.4103,1.4148,1.4179,1.4204,1.4248,1.4281,1.4347,1.4368,1.4365,1.4465,1.4502,1.4568,1.4579,1.4602,1.4614,1.4605,1.4654,1.4658,1.4662,1.4677,1.4683,1.4616,1.4616,1.4616,1.4616,0,1.4065,1.4112,1.414,1.4204,1.4238,1.4282,1.4322,1.4353,1.4371,1.44,1.4459,1.4503,1.4558,1.4576,1.4594,1.4645,1.4642,1.4646,1.4641,1.4666,1.4681,1.4687,1.4615,1.4615,1.4615,1.4615,0,0,1.4086,1.4168,1.4178,1.4207,1.4268,1.4305,1.435,1.4404,1.4429,1.4474,1.4513,1.4579,1.4583,1.4616,1.4638,1.4666,1.4698,1.4666,1.4668,1.467,1.4756,1.4752,1.4758,1.4707,1.4708,1.4709,1.4751,0,1.4125,1.4208,1.4239,1.4307,1.435,1.4374,1.4414,1.4455,1.4484,1.4525,1.4557,1.4603,1.4605,1.4625,1.4653,1.4688,1.4715,1.4685,1.4743,1.4744,1.4728,1.4766,1.4762,1.48,1.4757,1.4758,1.4759,0,1.4182,1.4227,1.4299,1.4355,1.4374,1.4409,1.4461,1.45,1.4547,1.4566,1.4602,1.4623,1.4671,1.4663,1.473,1.4709,1.4734,1.4755,1.4757,1.4763,1.4753,1.4773,1.4813,1.4818,1.4769,1.4768,1.4767,0,1.4189,1.4268,1.4321,1.4345,1.4412,1.4436,1.4465,1.4512,1.4542,1.4588,1.4608,1.4658,1.4685,1.4723,1.4757,1.4748,1.482,1.4815,1.4837,1.4836,1.4851,1.4849,1.4895,1.4868,1.4868,1.4868,1.4868,0,1.4229,1.4271,1.4325,1.4358,1.4406,1.4442,1.4489,1.4519,1.4561,1.4599,1.4624,1.4659,1.4702,1.4742,1.4769,1.482,1.4832,1.4849,1.4855,1.4846,1.4844,1.4863,1.4861,1.4869,1.4869,1.4869,1.4868,0,1.4245,1.4283,1.4342,1.4401,1.4416,1.4449,1.4499,1.4532,1.4562,1.461,1.4623,1.467,1.472,1.4757,1.4821,1.4839,1.4893,1.49,1.4876,1.488,1.4899,1.4896,1.4958,1.4968,1.4935,1.4935,1.4935,0,1.4268,1.4301,1.4363,1.4391,1.442,1.4464,1.4495,1.4532,1.4563,1.462,1.4645,1.4696,1.4739,1.4817,1.4856,1.4905,1.4913,1.4932,1.4921,1.4911,1.4913,1.491,1.4913,1.4933,1.4933,1.4933,1.4933,0,1.4303,1.4321,1.4365,1.4415,1.4452,1.4493,1.4535,1.4556,1.46,1.4634,1.4685,1.4718,1.4784,1.4834,1.4887,1.4916,1.4932,1.4937,1.4944,1.4935,1.492,1.4928,1.488,1.4935,1.4935,1.4935,1.4934,1.4934,1.4323,1.4354,1.4402,1.4451,1.4486,1.4525,1.4558,1.4592,1.4635,1.4691,1.471,1.4762,1.4809,1.4882,1.4912,1.4953,1.4953,1.4964,1.4967,1.4969,1.4968,1.4914,1.4963,1.4963,1.4963,1.4963,1.4963,0,1.436,1.4392,1.4436,1.4494,1.4532,1.4544,1.4591,1.4622,1.4667,1.471,1.4752,1.481,1.4858,1.4902,1.4952,1.4977,1.4985,1.4989,1.4987,1.4993,1.4965,1.4953,1.4981,1.4981,1.4981,1.4981,1.4981,1.4981,1.4383,1.4436,1.4458,1.4528,1.4561,1.4612,1.4638,1.4674,1.4708,1.4771,1.4812,1.484,1.4883,1.4937,1.4982,1.4993,1.501,1.5012,1.5025,1.4998,1.4996,1.4993,1.4982,1.5016,1.5016,1.505,1.505,1.5051]},{"header":{"parameterUnit":"m.s-1","parameterCategory":1,"la1":30.2991,"la2":30.254,"lo1":-89.0895,"lo2":-89.0444,"dy":0.0017,"dx":0.0017,"nx":28,"ny":28,"refTime":"2024-06-08T09:00:00:Z","depth":0,"parameterNumber":3,"parameterNumberName":"V-component_of_WINDS"},"data":[0,0,0,0,0,0,0,0,0,0,0,0,0,0,0,0,0,0,0,0,0,0,0,0,0,0,0,0,0,0,0,0,0,0,0,0,0,0,0,0,0,0,0,0,0,0,0,0,0,0,0,0,0,0,0,0,0,0,3.8592,3.8592,0,3.866,3.866,3.8661,3.8696,3.8697,3.8697,3.8697,3.8761,3.8763,3.8764,0,0,0,0,0,0,0,0,0,0,0,0,0,3.8485,3.8487,3.8592,3.8593,3.8593,3.866,3.866,3.8661,3.8696,3.8697,3.8697,3.8697,3.8761,3.8763,3.8765,0,0,0,0,0,0,0,0,0,0,0,0,0,3.854,3.8488,3.8592,3.8619,3.8622,3.8659,3.8661,3.8662,3.8696,3.8697,3.8697,3.8697,3.876,3.8762,3.8765,3.8778,0,0,3.8772,3.8774,0,0,0,0,0,0,0,0,3.8537,3.8544,3.8614,3.8617,3.8621,3.867,3.8647,3.8701,3.8696,3.8668,3.8697,3.8697,3.873,3.8735,3.8748,3.8781,3.8784,3.8773,3.8774,3.8775,3.8776,0,0,0,0,0,0,0,3.8533,3.8541,3.8618,3.8615,3.8619,3.8626,3.8634,3.8657,3.8698,3.8671,3.8673,3.8681,3.8732,3.8745,3.8749,3.8785,3.8773,3.8775,3.8776,3.8777,3.8831,3.883,0,0,0,0,0,0,3.8526,3.8538,3.8616,3.8621,3.8578,3.8627,3.8636,3.8654,3.8698,3.8704,3.8681,3.8682,3.8741,3.8746,3.8752,3.8769,3.8775,3.8778,3.8779,3.8831,3.8831,3.883,0,0,0,0,0,0,3.8523,3.8533,3.8614,3.858,3.8591,3.8629,3.8649,3.8655,3.8668,3.8706,3.8712,3.8687,3.8741,3.8748,3.8771,3.8772,3.8779,3.8781,3.8831,3.8831,3.883,3.8805,0,0,0,0,0,0,3.852,3.8531,3.8539,3.858,3.8593,3.8634,3.8649,3.8656,3.8673,3.8676,3.8713,3.872,3.8742,3.8767,3.8774,3.8776,3.8783,3.8831,3.8831,3.8831,3.8806,3.8804,3.8802,0,0,0,0,0,3.8516,3.8528,3.8539,3.8548,3.8603,3.8634,3.8641,3.8668,3.8673,3.868,3.8703,3.8718,3.8771,3.8769,3.8777,3.8779,3.8831,3.8831,3.8831,3.8807,3.8804,3.8802,0,0,0,0,0,0,3.8485,3.8534,3.8547,3.8573,3.8599,3.864,3.8649,3.8665,3.8689,3.869,3.8721,3.8729,3.8748,3.8766,3.8764,3.8793,3.8802,3.8803,3.8781,3.878,3.8778,3.8773,3.8785,0,0,0,0,0,3.8482,3.8505,3.8546,3.8565,3.8577,3.8611,3.8625,3.8644,3.8671,3.8682,3.8707,3.8732,3.8754,3.8768,3.879,3.8808,3.8816,3.8813,3.8812,3.881,3.8811,3.8819,3.8818,3.883,3.883,3.883,0,0,3.8474,3.8504,3.8517,3.8559,3.8582,3.8602,3.862,3.8642,3.8657,3.8685,3.8709,3.8727,3.8757,3.8777,3.8787,3.8792,3.8809,3.881,3.8808,3.881,3.8819,3.8818,3.8817,3.883,3.883,3.883,0,0,3.8471,3.8497,3.8515,3.8537,3.8571,3.8592,3.8596,3.8634,3.8648,3.8673,3.8693,3.871,3.8748,3.8768,3.8782,3.8784,3.8798,3.879,3.878,3.8789,3.8788,3.8787,3.8786,3.8785,3.879,3.879,3.879,0,3.8458,3.8492,3.8522,3.8542,3.8559,3.8586,3.8602,3.8622,3.866,3.867,3.8676,3.8722,3.8744,3.8768,3.8768,3.878,3.8783,3.8786,3.8786,3.8785,3.8785,3.8784,3.8784,3.8789,3.8789,3.8789,3.8789,0,3.8472,3.8495,3.8505,3.8543,3.8561,3.8579,3.8609,3.8623,3.8639,3.8659,3.8682,3.8708,3.8736,3.8743,3.8758,3.8768,3.877,3.878,3.879,3.8782,3.8782,3.8782,3.8787,3.8788,3.8788,3.8788,0,0,3.8454,3.8506,3.8509,3.8526,3.8564,3.8581,3.8599,3.8627,3.8637,3.8662,3.8677,3.8707,3.8716,3.8732,3.875,3.8757,3.8754,3.8766,3.8767,3.8762,3.8764,3.8756,3.8756,3.8763,3.8764,3.8764,3.8761,0,3.8456,3.8492,3.8517,3.8542,3.8563,3.8587,3.8602,3.8626,3.8644,3.8662,3.8682,3.8703,3.8714,3.8724,3.8732,3.8753,3.8755,3.8753,3.8775,3.8776,3.8767,3.8756,3.8748,3.8745,3.8762,3.8762,3.8762,0,3.8464,3.8489,3.8516,3.8549,3.8559,3.8573,3.8598,3.8616,3.8642,3.8655,3.8672,3.869,3.8707,3.8714,3.8738,3.8736,3.8746,3.8757,3.8758,3.8761,3.8768,3.8757,3.8745,3.8744,3.8762,3.8762,3.8762,0,3.8446,3.8486,3.8507,3.852,3.856,3.8569,3.8586,3.8612,3.8626,3.8648,3.8657,3.868,3.8692,3.8709,3.8731,3.8735,3.8751,3.8761,3.876,3.876,3.8763,3.8763,3.8751,3.877,3.877,3.877,3.877,0,3.8446,3.8461,3.8499,3.8512,3.8529,3.8557,3.8572,3.859,3.8613,3.8628,3.8649,3.8662,3.8691,3.8707,3.8725,3.874,3.8746,3.8755,3.8759,3.8753,3.8751,3.876,3.876,3.877,3.877,3.877,3.877,0,3.8429,3.8456,3.848,3.8516,3.8525,3.8535,3.8564,3.8576,3.8595,3.8614,3.8619,3.8649,3.8668,3.8692,3.8719,3.8731,3.8744,3.8751,3.8736,3.8738,3.8736,3.8736,3.8729,3.8729,3.8749,3.8749,3.8748,0,3.8428,3.844,3.8476,3.8488,3.8505,3.8524,3.8538,3.8564,3.8578,3.8607,3.8615,3.8636,3.8655,3.8684,3.8707,3.8727,3.8734,3.873,3.8737,3.873,3.8733,3.8731,3.8732,3.8728,3.8728,3.8728,3.8728,0,3.8421,3.8432,3.8453,3.8478,3.8494,3.8515,3.8536,3.8544,3.8574,3.8587,3.8608,3.8623,3.865,3.867,3.8692,3.8707,3.8721,3.8725,3.8726,3.8719,3.871,3.8714,3.873,3.8725,3.8725,3.8726,3.8726,3.8726,3.8411,3.8422,3.8449,3.847,3.8489,3.8507,3.852,3.854,3.8558,3.8583,3.8597,3.8616,3.8639,3.8671,3.8685,3.8699,3.8705,3.8706,3.8706,3.8706,3.8704,3.8707,3.8703,3.8704,3.8704,3.8704,3.8704,0,3.8404,3.8422,3.8442,3.847,3.8486,3.8499,3.8522,3.8534,3.8552,3.8572,3.859,3.8612,3.8631,3.8654,3.8674,3.8681,3.8687,3.8685,3.8684,3.8687,3.8698,3.8695,3.8679,3.8679,3.8679,3.8679,3.8679,3.8679,3.8403,3.8422,3.8436,3.8463,3.8481,3.8501,3.8513,3.8529,3.8545,3.8569,3.8585,3.8601,3.8621,3.8642,3.8659,3.8666,3.8671,3.8667,3.8674,3.8684,3.8687,3.8689,3.8686,3.8668,3.8668,3.8662,3.8662,3.8662]}]]